Snowfall_Accumulation
0.0 0.0 0.0 0.0 0.0 0.0 0.0 0.0 9.5 0.0 0.0 11.7 14.4 14.9 2.3 0.0 0.0 0.0 0.0 0.0 0.0 0.0 0.0 0.0 1.4 0.7 0.0 0.0 0.0 0.0 0.0 0.0 0.1 0.0 0.0 0.0 0.0 0.0 0.0 0.1 0.0 0.0 0.0 0.0
0.0 0.0 0.0 0.0 0.0 0.0 0.0 5.0 3.8 0.0 0.0 13.4 10.9 0.8 0.6 0.2 0.0 0.0 0.0 0.7 0.0 0.0 0.0 0.2 0.0 0.0 0.0 0.0 0.0 0.0 0.0 0.0 4.0 0.6 0.0 0.0 0.0 0.0 0.0 0.0 0.0 0.0 0.0 0.0
0.0 0.0 0.0 0.0 0.0 0.0 0.0 3.2 11.4 3.5 0.0 0.0 1.8 2.9 0.2 1.5 0.0 0.0 0.0 0.3 0.0 0.7 2.4 1.2 0.0 0.0 0.0 0.0 0.0 0.0 0.0 0.0 1.2 1.7 0.3 0.0 0.0 0.0 0.0 0.0 0.0 0.0 0.0 0.0
0.0 0.0 0.0 0.0 0.0 0.0 0.0 7.9 14.1 0.5 12.7 14.3 2.4 0.3 0.0 0.6 1.4 0.0 0.0 0.0 0.3 1.2 1.3 1.9 1.8 1.0 0.0 0.0 0.0 0.0 2.8 5.6 2.8 0.7 0.0 0.0 0.0 0.0 0.0 0.0 0.0 0.0 0.0 0.0
0.0 0.0 0.0 0.0 0.0 0.0 0.0 23.0 12.7 3.2 1.6 0.3 1.5 0.9 2.2 0.3 0.0 0.4 0.0 0.0 0.0 0.0 1.6 1.4 1.7 0.0 0.0 0.0 0.0 0.0 1.9 4.8 3.5 3.1 1.2 0.0 0.0 0.0 0.0 0.0 0.0 0.0 0.0 0.0
0.0 0.0 0.0 0.0 0.0 0.0 0.7 0.0 0.0 4.1 3.5 1.2 3.3 3.8 0.5 0.0 0.0 0.0 0.0 0.0 0.0 0.0 0.0 0.0 0.0 1.0 0.0 0.0 3.5 2.1 3.9 7.8 7.3 6.2 1.7 1.8 1.5 0.5 0.0 0.0 0.0 0.0 0.0 0.0
0.0 0.0 0.0 0.0 0.0 0.0 0.0 0.0 0.0 9.9 8.5 3.1 1.3 0.1 0.3 0.4 0.0 0.0 0.0 0.0 0.0 0.0 0.0 0.0 1.3 1.2 0.9 2.4 0.3 2.2 7.0 4.5 6.4 8.5 3.4 9.0 1.6 0.0 0.0 0.0 0.0 0.0 0.0 0.0
0.0 0.0 0.0 0.0 0.0 0.0 0.0 0.0 0.0 9.1 10.0 4.0 1.3 0.4 0.6 0.1 0.0 0.5 0.2 0.0 0.0 0.0 0.0 2.7 10.2 11.8 11.2 4.7 2.0 4.0 0.2 3.7 8.6 10.0 5.2 2.3 0.0 0.7 0.0 0.0 0.0 0.0 0.0 0.0
0.0 0.0 0.0 0.0 0.0 0.0 0.0 0.0 0.0 5.3 6.7 4.7 0.6 1.0 0.6 2.7 3.0 4.5 2.5 0.0 0.0 0.0 3.6 14.5 13.3 8.9 7.6 8.9 2.6 0.9 0.7 0.0 4.7 7.7 6.8 4.4 0.0 0.0 0.0 0.0 0.3 0.0 0.0 0.0
0.0 0.0 0.0 0.0 0.0 0.0 0.0 0.0 0.0 0.0 6.0 1.0 0.0 1.6 3.2 0.2 0.7 2.4 3.4 3.9 4.2 3.1 8.2 16.0 10.0 6.8 2.5 2.7 5.1 6.6 5.6 4.2 13.4 7.9 5.3 0.0 0.0 0.0 0.0 0.6 0.9 0.0 0.0 0.0
0.0 0.0 0.0 0.0 0.0 0.0 0.0 0.0 0.0 0.0 7.8 5.1 0.0 0.0 1.1 4.2 3.0 6.0 6.4 3.9 7.1 11.3 13.3 12.0 10.3 7.2 1.1 3.0 1.2 0.2 0.4 5.0 7.8 9.7 10.2 5.7 0.0 0.0 0.0 0.0 0.0 0.0 0.0 0.0
0.0 0.0 0.0 0.0 0.0 0.0 0.0 0.0 0.0 0.0 3.4 8.8 0.0 0.0 0.0 0.0 0.0 2.0 3.5 2.9 1.1 1.2 5.8 7.5 5.7 6.1 4.7 0.5 1.6 0.0 1.9 0.0 4.0 2.3 3.1 0.0 0.0 0.0 0.0 0.0 0.0 0.0 0.0 0.0
0.0 0.0 0.0 0.0 0.0 0.0 0.0 0.0 0.0 0.0 8.5 4.8 3.6 6.2 0.0 0.0 0.0 0.0 2.6 2.6 0.7 0.3 0.1 1.9 1.8 3.6 2.3 4.2 2.7 0.5 0.0 0.1 0.0 0.0 0.0 0.0 0.0 0.0 0.0 0.0 0.0 0.0 0.0 0.0
0.0 0.0 0.0 0.0 0.0 0.0 0.0 0.0 0.0 0.0 2.5 4.3 5.6 0.0 3.2 0.0 0.0 0.0 0.0 0.0 0.0 0.1 0.0 2.1 4.6 4.0 0.5 0.4 0.3 1.0 0.1 0.0 0.7 0.6 0.0 0.0 0.0 0.0 0.0 0.0 0.0 0.0 0.0 0.0
0.0 0.0 0.0 0.0 0.0 0.0 0.0 0.0 0.0 0.0 0.1 4.3 3.3 0.0 0.0 2.7 0.0 0.0 0.0 0.0 0.0 0.3 0.4 5.5 4.3 1.0 1.9 2.8 2.4 1.6 0.1 0.0 0.0 0.0 0.0 0.0 0.0 0.0 0.0 0.0 0.0 0.0 0.0 0.0
0.0 0.0 0.0 0.0 0.0 0.0 0.0 6.3 0.0 0.0 0.0 1.6 2.5 2.4 2.2 4.9 2.0 0.0 0.0 0.3 1.0 0.0 3.0 3.0 1.3 0.0 0.0 3.0 2.5 0.0 0.0 0.0 0.0 0.0 0.0 0.0 0.0 0.0 0.0 0.0 0.0 0.0 0.0 0.0
0.0 0.0 0.0 0.0 0.0 0.0 4.6 3.0 2.2 0.0 0.0 3.2 2.9 2.2 1.8 3.1 3.4 3.4 5.5 2.1 5.4 3.6 3.0 2.7 1.7 1.0 0.7 0.3 0.0 0.0 0.0 0.0 0.0 0.0 0.0 0.0 0.0 0.0 0.0 0.0 0.0 0.0 0.0 0.0
0.0 0.0 0.0 0.0 0.0 0.0 3.6 0.0 0.0 0.0 0.0 1.4 2.7 2.1 1.3 0.6 2.5 3.0 3.6 5.6 5.4 5.6 4.0 2.5 1.5 1.4 1.5 1.8 0.0 0.0 0.0 0.0 0.0 0.0 0.0 0.0 0.0 0.0 0.0 0.0 0.0 0.0 0.0 0.0
0.0 0.0 0.0 0.0 0.0 0.0 0.0 0.0 0.0 0.0 0.0 4.5 2.5 2.1 1.5 0.1 1.4 1.8 2.2 2.8 4.8 3.5 4.9 3.2 1.8 2.0 1.6 0.5 0.0 0.0 0.0 0.0 0.0 0.0 0.0 0.0 0.0 0.0 0.0 0.0 0.0 0.0 0.0 0.0
0.0 0.0 0.0 0.2 0.0 0.0 0.0 0.0 0.1 0.8 2.0 1.6 1.7 0.2 0.8 0.5 0.0 1.6 1.6 2.5 3.1 3.4 2.1 1.5 2.0 0.9 0.0 0.0 0.0 0.0 0.0 0.0 0.0 0.0 0.0 0.0 0.0 0.0 0.0 0.0 0.0 0.0 0.0 0.0
0.0 0.2 0.4 0.0 0.0 0.0 0.0 0.1 0.2 0.0 0.5 0.3 0.3 0.0 0.0 0.0 0.7 1.5 0.9 1.2 1.5 1.7 0.7 1.4 1.5 0.1 0.0 0.0 0.0 0.0 0.0 0.0 0.0 0.0 0.0 0.0 0.0 0.0 0.0 0.0 0.0 0.0 0.0 0.0
0.0 0.0 0.0 0.0 0.0 0.3 0.5 0.0 0.0 0.0 0.0 0.3 0.1 0.0 0.0 0.0 0.1 0.5 0.6 0.9 1.7 1.0 0.1 1.2 0.9 0.0 0.1 0.0 0.0 0.0 0.0 0.0 0.0 0.0 0.0 0.0 0.0 0.0 0.0 0.0 0.0 0.0 0.0 0.0
0.0 0.3 0.3 0.0 0.1 0.1 0.0 0.8 0.7 0.1 0.0 0.2 0.0 0.2 0.0 0.1 0.1 0.5 0.4 0.9 0.2 0.0 0.7 0.6 0.4 0.1 0.4 0.5 0.7 0.0 0.0 0.0 0.0 0.0 0.0 0.0 0.0 0.0 0.0 0.8 1.0 0.8 0.5 0.0
0.1 0.3 0.0 0.0 0.3 0.0 0.2 0.5 1.1 0.1 0.0 0.0 0.0 0.1 0.3 0.2 0.4 0.0 0.1 0.0 0.1 0.7 0.5 1.1 0.1 0.5 0.1 1.0 2.1 1.0 0.9 0.2 0.2 0.1 0.0 0.0 0.0 0.6 1.1 0.5 0.3 0.3 0.1 0.0
0.1 0.1 0.2 0.0 0.1 0.0 0.2 0.0 0.0 0.0 0.1 0.1 0.1 0.0 0.1 0.0 0.0 0.0 0.0 0.1 0.0 0.3 0.8 0.5 0.1 0.4 0.0 1.0 2.0 2.9 3.9 2.8 2.0 1.8 1.9 1.6 1.6 1.2 1.2 0.4 0.1 0.0 0.0 0.0
0.0 0.0 0.1 0.4 0.6 0.7 0.5 0.4 0.3 0.0 0.0 0.1 0.2 0.1 0.0 0.0 0.0 0.0 0.1 0.4 0.7 0.3 0.5 0.3 0.2 0.0 0.1 0.5 1.0 1.2 2.0 2.9 3.0 2.4 2.2 2.4 1.4 0.9 0.8 0.3 0.1 0.1 0.0 0.0
0.0 0.0 0.0 2.1 3.2 0.7 0.4 0.7 0.5 0.0 1.0 0.8 0.2 0.1 0.0 0.0 0.1 0.6 0.5 1.5 1.4 0.5 0.6 0.3 0.3 0.6 0.0 0.1 0.0 0.2 0.3 0.8 1.4 1.9 2.2 2.3 1.9 1.1 0.5 0.1 0.0 0.0 0.0 0.1